Retour au catalogue

FENGYUN 1C DEB

LostSSO
NORAD 38790·DEBRIS·🇨🇳 China

Lancé May 10, 1999 depuis Taiyuan Satellite Launch Center

Loading…

Prochains Passages (prochaines 24 heures)

TLE

PériméSource: Space-Track

Époque: Jul 28, 2024, 16:14 UTC

1 38790U 99025EUE 24210.67696591  .00005931  00000-0  26303-2 0  9994
2 38790  98.8548 292.1406 0075307 115.7980 245.0991 14.21909453732693

Suivez FENGYUN 1C DEB en temps réel avec AllMySat

Download on the App Store